www.pogodaiklimat.ru

Погода и климат >> Архив погоды >> Россия >> Волгоградская область >> Рудня


ПОГОДА в Рудне

  • Прогноз погоды в Рудне
  • Монитор погоды в Рудне

АРХИВ ПОГОДЫ в Рудне

Время (UTC), дата Ветер
(напр.,м/с)
 
Видим.   Явления Облачность Т
(С)
Тd
(С)
f
(%)
Тe
(С)
Тes
(С)
Комфортность P
(гПа)
Po
(гПа)
Тmin
(С)
Tmax
(С)
R
(мм)
R24
(мм)
S
(см)
18 12.06 штиль 0 10 км 3/0
[Ac trans]
+24.2 +12.3 47 +26 +26 жарко 1013.4 1000.0
21 12.06 СЗ 1 10 км ясно +20.5 +11.8 57 +24 +24 комфорт 1013.7 1000.1
00 13.06 штиль 0 10 км ясно +18.3 +12.8 70 +19 +19 1014.0 1000.3
03 13.06 СЗ 1 10 км 3/1 600 м
[Cu hum Ac trans]
+20.9 +14.0 65 +25 +27 комфорт 1014.7 1001.1 +17.6
06 13.06 В 4 10 км 8/0
[Ac trans]
+25.3 +10.9 40 +26 +30 жарко 1016.2 1002.8
09 13.06 СВ 2 10 км 9/0
[Ac trans Ci fib]
+26.8 +10.6 36 +28 +38 жарко 1017.5 1004.2
12 13.06 СВ 3
{11}
10 км 8/5 600 м
[Cb cap Ac trans]
+25.8 +8.8 34 +26 +29 жарко 1018.2 1004.8
15 13.06 СВ 3 10 км 3/0
[Ac trans]
+24.5 +2.2 23 +23 +25 комфорт 1018.7 1005.2 +27.9
18 13.06 В 2 10 км 5/0
[Ac trans]
+17.4 +3.0 38 +18 +18 1021.2 1007.4
21 13.06 СВ 1 10 км ясно +11.4 +3.7 59 +11 +11 1022.6 1008.5
00 14.06 штиль 0 10 км ясно +8.0 +3.3 72 +7 +7 1023.9 1009.6
03 14.06 СЗ 1 10 км 5/0
[Ac trans]
+11.2 +5.2 67 +11 +13 1024.6 1010.4 +6.7
06 14.06 В 2 10 км 8/0
[Ci fib]
+19.3 +1.6 31 +20 +30 1023.7 1009.9
09 14.06 ЮВ 1 10 км 1/0
[Ci fib]
+22.7 -0.1 22 +22 +42 комфорт 1022.3 1008.7
12 14.06 СЗ 1 10 км 3/0
[Ci fib]
+24.6 -1.3 18 +23 +36 комфорт 1019.7 1006.2
15 14.06 З 2 10 км ясно +23.9 +0.4 21 +23 +25 комфорт 1017.9 1004.4 +25.3
18 14.06 З 1 10 км ясно +19.0 +1.3 31 +20 +20 1016.3 1002.6
21 14.06 СЗ 1 10 км 8/0
[Ac trans]
+17.6 +1.3 33 +19 +19 1015.9 1002.1
00 15.06 СЗ 1 10 км 8/5 600 м
[Sc Ac trans]
+17.4 +3.6 40 +18 +18 1014.0 1000.3
03 15.06 СЗ 2 10 км 8/4 600 м
[Sc Ac trans]
+17.3 +5.9 47 +18 +18 1013.0 999.3 +14.8
06 15.06 СЗ 2 10 км 8/6 600 м
[Cb cap Ac trans]
+22.0 +9.0 43 +23 +27 комфорт 1012.5 999.0
09 15.06 СЗ 3 10 км 8/5 600 м
[Cu med, cong Ac trans Ci fib]
+27.5 +11.5 37 +28 +34 жарко 1011.7 998.5
12 15.06 С 3 10 км 8/5 600 м
[Cu med, cong Ac trans]
+27.7 +12.1 38 +29 +32 жарко 1010.8 997.6
15 15.06 С 2 10 км 8/5 600 м
[Sc diur, vesp Ac trans Ci fib]
+24.9 +12.2 45 +27 +27 жарко 1011.2 997.9 +28.7
18 15.06 штиль 0 10 км 10/5 600 м
[Sc Ac trans Ci fib]
+20.7 +12.5 59 +23 +23 комфорт 1012.3 998.7
21 15.06 В 1 10 км 9/9 600 м
[Sc diur, vesp]
+17.8 +11.3 66 +19 +19 1012.1 998.4
00 16.06 штиль 0 10 км 10/10 600 м
[Sc]
+17.4 +10.5 64 +17 +17 1012.0 998.3
03 16.06 штиль 0 10 км 9/8 600 м
[Sc Ac trans]
+17.5 +11.0 66 +18 +18 1011.8 998.1 +16.7
06 16.06 З 1 10 км 8/6 600 м
[Sc Ac trans Ci fib]
+23.5 +10.7 44 +25 +29 комфорт 1011.8 998.4
09 16.06 З 2 10 км 9/8 600 м
[Cu med, cong Ci fib]
+27.7 +11.8 37 +29 +32 жарко 1010.6 997.4
12 16.06 СЗ 2 10 км 10/6 600 м
[Cb cap Ac trans Ci fib]
+26.3 +11.5 40 +28 +30 жарко 1009.8 996.5
15 16.06 С 3 10 км 10/3 600 м
[Sc Ac As]
+25.2 +8.6 35 +26 +26 жарко 1009.9 996.6 +27.9
18 16.06 С 2 10 км 8/0
[Ac As]
+20.2 +7.7 44 +22 +22 комфорт 1011.1 997.5
21 16.06 СЗ 1 10 км 4/0
[Ac As]
+15.8 +7.9 59 +17 +17 1012.2 998.4
00 17.06 СЗ 1 10 км ясно +11.2 +7.9 80 +11 +11 1013.1 999.1
03 17.06 штиль 0 10 км ясно +15.9 +8.7 62 +16 +19 1013.9 1000.1 +10.7
06 17.06 В 2 10 км ясно +23.2 +5.7 32 +24 +35 комфорт 1014.1 1000.6
09 17.06 В 1 10 км ясно +26.5 +5.6 26 +26 +46 жарко 1013.8 1000.5
12 17.06 С 1 10 км ясно +28.1 +5.0 23 +27 +40 жарко 1013.2 999.9
15 17.06 СЗ 1 10 км ясно +26.6 +5.1 25 +26 +28 жарко 1012.5 999.2 +28.3
18 17.06 штиль 0 10 км 3/0
[Ac trans]
+20.0 +8.8 48 +21 +21 комфорт 1013.3 999.7
21 17.06 СЗ 1 10 км 8/0
[Ac trans]
+15.7 +9.7 67 +16 +16 1014.0 1000.2
00 18.06 штиль 0 10 км 9/3 600 м
[Sc Ac trans]
+13.8 +10.8 82 +13 +13 1013.7 999.8
03 18.06 С 1 10 км 8/0
[Ac trans]
+18.5 +10.7 60 +20 +21 1014.0 1000.3 +13.5
06 18.06 СВ 1 10 км 1/0
[Ac trans]
+25.9 +8.7 34 +26 +39 жарко 1013.5 1000.2
09 18.06 СЗ 2 10 км 8/5 600 м
[Cb cap Ac trans]
+28.1 +7.6 27 +27 +33 жарко 1012.9 999.7
12 18.06 СЗ 2 10 км 6/4 600 м
[Cb cap Ac trans]
+30.6 +6.2 22 +29 +35 жарко 1011.8 998.7
15 18.06 С 1 10 км 5/4 600 м
[Cu med, cong Ac trans]
+28.4 +6.3 25 +27 +29 жарко 1011.1 997.9 +30.7
18 18.06 штиль 0 10 км ясно +21.8 +10.1 47 +23 +23 комфорт 1011.9 998.4
21 18.06 штиль 0 10 км ясно +17.3 +11.0 66 +17 +17 1012.1 998.4
00 19.06 штиль 0 10 км 6/3 600 м
[Sc Ac trans]
+15.6 +11.2 75 +15 +15 1012.2 998.4
03 19.06 З 1 10 км слаб. дождь 10/6 600 м
[Frnb As op]
+16.8 +14.7 87 +18 +18 1013.4 999.7 +15.6 0.5
06 19.06 СЗ 1 10 км {дождь} 8/4 600 м
[Cu Sc Ac trans]
+21.6 +18.0 80 +26 +31 душно 1012.6 999.1
09 19.06 СЗ 2 10 км 5/4 600 м
[Cb cap Ac trans]
+29.0 +12.8 37 +30 +40 жарко 1011.7 998.6
12 19.06 СЗ 2 10 км 3/3 600 м
[Cb cap]
+30.8 +6.5 22 +29 +37 жарко 1011.0 997.9

 

Местоположение метеостанции Рудня (Волгоградская область, Россия): широта 50.83 долгота 44.57 высота над уровнем моря 115 м.

В архиве по умолчанию представлена погода в Рудне за последнюю неделю. Архивные данные за месяц целиком и за предыдущие месяцы, начиная с января 2011 года, Вы можете получить, выбрав интересующий диапазон дат из раскрывающегося списка и нажав кнопку "Ввод!".


*Определитесь, кто Вы:
робот инопланетянин человек

Внимание! Время в таблицах - всемирное. Для получения местного времени необходимо прибавить поправку, которая равна 3 ч.

Смотрите также архив погоды в соседних городах и на ближайших метеорологических станциях:

Погода в Даниловке (Волгоградская область, Россия) (60 км)
Погода в Елани (Волгоградская область, Россия) (60 км)
Погода в Сплавнухе (Саратовская область, Россия) (63 км)
Погода в Калининске (Саратовская область, Россия) (72 км)
Погода в Камышине (Волгоградская область, Россия) (102 км)
Погода в Ольховке (Волгоградская область, Россия) (107 км)
Погода в Октябрьском Городке (Саратовская область, Россия) (108 км)
Погода в Аткарске (Саратовская область, Россия) (120 км)
Погода в Михайловке (Волгоградская область, Россия) (124 км)
Погода в Балашове (Саратовская область, Россия) (127 км)

Пояснения к столбцам:

Ветер - указаны скорость ветра в м/с - средняя за 10 мин, порывы в срок и между сроками (в фигурных скобках) и направление, откуда дует ветер: С - северный, СВ - северо-восточный, В - восточный, ЮВ - юго-восточный, Ю - южный, ЮЗ - юго-западный, З - западный, СЗ - северо-западный.
Видимость - горизонтальная дальность видимости в метрах или километрах. При видимости от 1 до 10 км при отсутствии осадков обычно наблюдается дымка, при ухудшении видимости до 1 км и менее - туман. В сухую погоду видимость может ухудшаться дымом, пылью или мглою.
Явления - указаны атмосферные явления, наблюдавшиеся в срок или в последний час перед сроком; фигурными скобками обозначены явления, наблюдавшиеся между сроками (за 1-3 часа до срока); квадратными скобками обозначены град или гололедные отложения с указанием их диаметра в мм.
Облачность - указаны через наклонную черту общая и нижняя облачность в баллах и высота нижней границы облаков в метрах; квадратными скобками обозначены формы облаков: Ci - перистые, Cs - перисто-слоистые, Cc - перисто-кучевые, Ac - высококучевые, As - высокослоистые, Sc - слоисто-кучевые, Ns - слоисто-дождевые, Cu - кучевые, Cb - кучево-дождевые. Подробнее классификацию облаков см. в Атласе облаков (PDF).
T - Температура воздуха - температура, измеренная на высоте 2 м над землей.
Td - Температура точки росы - температура, при понижении до которой содержащийся в воздухе водяной пар достигнет насыщения.
f - Относительная влажность воздуха - влажноcть воздуха, измеренная на высоте 2 м над землей.
Te - Эффективная температура - температура, которую ощущает одетый по сезону человек в тени. Характеристика душности погоды. При расчете учитывается влияние влажности воздуха и скорости ветра на теплоощущения человека.
Tes - Эффективная температура на солнце - температура, которую ощущает человек, с поправкой на солнечный нагрев. Характеристика знойности погоды. Зависит от высоты солнца над горизонтом, облачности и скорости ветра. Ночью, в пасмурную погоду, а также при ветре 12 м/с и более поправка равна нулю.
P - Атмосферное давление - приведенное к уровню моря атмосферное давление.
Po - Атмосферное давление - измеренное на уровне метеостанции атмосферное давление.
Tmin - Минимальная температура - минимум температуры воздуха на высоте 2 м над землей.
Tmax - Максимальная температура - максимум температуры воздуха на высоте 2 м над землей.
R - Количество осадков - Количество выпавших осадков за период времени, мм. При наведении курсора мыши на число - период времени, за который выпало указанное количество осадков.
R24 - Количество осадков - Количество выпавших осадков за 24 часа, мм.
S - Снежный покров - Высота снежного покрова, см. При наведении курсора мыши на число - состояние снежного покрова и степень покрытия местности в баллах.